QPF
0.00 0.00 0.00 0.00 0.00 0.00 0.00 0.00 0.00 0.00 0.00 0.00 0.00 0.00 0.00 0.00 0.00 0.00 0.00 0.00 0.00 0.00 0.00 0.00 0.00 0.00 0.00 0.00 0.00 0.00 0.00 0.00 0.00 0.00 0.00 0.01 0.01 0.01 0.01 0.00 0.00 0.00 0.00 0.00
0.00 0.00 0.00 0.00 0.00 0.00 0.00 0.00 0.00 0.00 0.00 0.00 0.00 0.00 0.00 0.00 0.00 0.00 0.00 0.00 0.00 0.00 0.00 0.00 0.00 0.00 0.00 0.00 0.00 0.00 0.00 0.00 0.00 0.00 0.00 0.01 0.01 0.01 0.00 0.00 0.00 0.00 0.00 0.00
0.00 0.00 0.00 0.00 0.00 0.00 0.00 0.00 0.00 0.00 0.00 0.00 0.00 0.00 0.00 0.00 0.00 0.00 0.00 0.00 0.00 0.00 0.00 0.00 0.00 0.00 0.00 0.00 0.00 0.00 0.00 0.00 0.00 0.00 0.00 0.00 0.00 0.00 0.00 0.00 0.00 0.00 0.00 0.00
0.00 0.00 0.00 0.00 0.00 0.00 0.00 0.00 0.00 0.00 0.00 0.00 0.00 0.00 0.00 0.00 0.00 0.00 0.00 0.00 0.00 0.00 0.00 0.00 0.00 0.00 0.00 0.00 0.00 0.00 0.00 0.00 0.00 0.00 0.00 0.00 0.00 0.00 0.00 0.00 0.00 0.00 0.00 0.00
0.00 0.00 0.00 0.00 0.00 0.00 0.00 0.00 0.00 0.00 0.00 0.00 0.00 0.00 0.00 0.00 0.00 0.00 0.00 0.00 0.00 0.00 0.00 0.00 0.00 0.00 0.00 0.00 0.00 0.00 0.00 0.00 0.00 0.00 0.00 0.00 0.00 0.00 0.00 0.00 0.00 0.00 0.00 0.00
0.00 0.00 0.00 0.00 0.00 0.00 0.00 0.00 0.00 0.00 0.00 0.00 0.00 0.00 0.00 0.00 0.00 0.00 0.00 0.00 0.00 0.00 0.00 0.00 0.00 0.00 0.00 0.00 0.00 0.00 0.00 0.00 0.00 0.00 0.00 0.00 0.00 0.00 0.00 0.00 0.00 0.00 0.00 0.00
0.00 0.00 0.00 0.00 0.00 0.00 0.00 0.00 0.00 0.00 0.00 0.00 0.00 0.00 0.00 0.00 0.00 0.00 0.00 0.00 0.00 0.00 0.00 0.00 0.00 0.00 0.00 0.00 0.00 0.00 0.00 0.00 0.00 0.00 0.00 0.00 0.00 0.00 0.00 0.00 0.00 0.00 0.00 0.00
0.00 0.00 0.00 0.00 0.00 0.00 0.00 0.00 0.00 0.00 0.00 0.00 0.00 0.00 0.00 0.00 0.00 0.00 0.00 0.00 0.00 0.00 0.00 0.00 0.00 0.00 0.00 0.00 0.00 0.00 0.00 0.00 0.00 0.00 0.00 0.00 0.00 0.00 0.00 0.00 0.00 0.00 0.00 0.00
0.00 0.00 0.00 0.00 0.00 0.00 0.00 0.00 0.00 0.00 0.00 0.00 0.00 0.00 0.00 0.00 0.00 0.00 0.00 0.00 0.00 0.00 0.00 0.00 0.00 0.00 0.00 0.00 0.00 0.00 0.00 0.00 0.00 0.00 0.00 0.00 0.00 0.00 0.00 0.00 0.00 0.00 0.00 0.00
0.00 0.00 0.00 0.00 0.00 0.00 0.00 0.00 0.00 0.00 0.00 0.00 0.00 0.00 0.00 0.00 0.00 0.00 0.00 0.00 0.00 0.00 0.00 0.00 0.00 0.00 0.00 0.00 0.00 0.00 0.00 0.00 0.00 0.00 0.00 0.00 0.00 0.00 0.00 0.00 0.00 0.00 0.00 0.00
0.00 0.00 0.00 0.00 0.00 0.00 0.00 0.00 0.00 0.00 0.00 0.00 0.00 0.00 0.00 0.00 0.00 0.00 0.00 0.00 0.00 0.00 0.00 0.00 0.00 0.00 0.00 0.00 0.00 0.00 0.00 0.00 0.00 0.00 0.00 0.00 0.00 0.00 0.00 0.00 0.00 0.00 0.00 0.00
0.00 0.00 0.00 0.00 0.00 0.00 0.00 0.00 0.00 0.00 0.00 0.00 0.00 0.00 0.00 0.00 0.00 0.00 0.00 0.00 0.00 0.00 0.00 0.00 0.00 0.00 0.00 0.00 0.00 0.00 0.00 0.00 0.00 0.00 0.00 0.00 0.00 0.00 0.00 0.00 0.00 0.00 0.00 0.00
0.00 0.00 0.00 0.00 0.00 0.00 0.00 0.00 0.00 0.00 0.00 0.00 0.00 0.00 0.00 0.00 0.00 0.00 0.00 0.00 0.00 0.00 0.00 0.00 0.00 0.00 0.00 0.00 0.00 0.00 0.00 0.00 0.00 0.00 0.00 0.00 0.00 0.00 0.00 0.00 0.00 0.00 0.00 0.00
0.00 0.00 0.00 0.00 0.00 0.00 0.00 0.00 0.00 0.00 0.00 0.00 0.00 0.00 0.00 0.00 0.00 0.00 0.00 0.00 0.00 0.00 0.00 0.00 0.00 0.00 0.00 0.00 0.00 0.00 0.00 0.00 0.00 0.00 0.00 0.00 0.00 0.00 0.00 0.00 0.00 0.00 0.00 0.00
0.00 0.00 0.00 0.00 0.00 0.00 0.00 0.00 0.00 0.00 0.00 0.00 0.00 0.00 0.00 0.00 0.00 0.00 0.00 0.00 0.00 0.00 0.00 0.00 0.00 0.00 0.00 0.00 0.00 0.00 0.00 0.00 0.00 0.00 0.00 0.00 0.00 0.00 0.00 0.00 0.00 0.00 0.00 0.00
0.00 0.00 0.00 0.00 0.00 0.00 0.00 0.00 0.00 0.00 0.00 0.00 0.00 0.00 0.00 0.00 0.00 0.00 0.00 0.00 0.00 0.00 0.00 0.00 0.00 0.00 0.00 0.00 0.00 0.00 0.00 0.00 0.00 0.00 0.00 0.00 0.00 0.00 0.00 0.00 0.00 0.00 0.00 0.00
0.00 0.00 0.00 0.00 0.00 0.00 0.00 0.00 0.00 0.00 0.00 0.00 0.00 0.00 0.00 0.00 0.00 0.00 0.00 0.00 0.00 0.00 0.00 0.00 0.00 0.00 0.00 0.00 0.00 0.00 0.00 0.00 0.00 0.00 0.00 0.00 0.00 0.00 0.00 0.00 0.00 0.00 0.00 0.00
0.00 0.00 0.00 0.00 0.00 0.00 0.00 0.00 0.00 0.00 0.00 0.00 0.00 0.00 0.00 0.00 0.00 0.00 0.00 0.00 0.00 0.00 0.00 0.00 0.00 0.00 0.00 0.00 0.00 0.00 0.00 0.00 0.00 0.00 0.00 0.00 0.00 0.00 0.00 0.00 0.00 0.00 0.00 0.00
0.00 0.00 0.00 0.00 0.00 0.00 0.00 0.00 0.00 0.00 0.00 0.00 0.00 0.00 0.00 0.00 0.00 0.00 0.00 0.00 0.00 0.00 0.00 0.00 0.00 0.00 0.00 0.00 0.00 0.00 0.00 0.00 0.00 0.00 0.00 0.00 0.00 0.00 0.00 0.00 0.00 0.00 0.00 0.00
0.00 0.00 0.00 0.00 0.00 0.00 0.00 0.00 0.00 0.00 0.00 0.00 0.00 0.00 0.00 0.00 0.00 0.00 0.00 0.00 0.00 0.00 0.00 0.00 0.00 0.00 0.00 0.00 0.00 0.00 0.00 0.00 0.00 0.00 0.00 0.00 0.00 0.00 0.00 0.00 0.00 0.00 0.00 0.00
0.00 0.00 0.00 0.00 0.00 0.00 0.00 0.00 0.00 0.00 0.00 0.00 0.00 0.00 0.00 0.00 0.00 0.00 0.00 0.00 0.00 0.00 0.00 0.00 0.00 0.00 0.00 0.00 0.00 0.00 0.00 0.00 0.00 0.00 0.00 0.00 0.00 0.00 0.00 0.00 0.00 0.00 0.00 0.00
0.00 0.00 0.00 0.00 0.00 0.00 0.00 0.00 0.00 0.00 0.00 0.00 0.00 0.00 0.00 0.00 0.00 0.00 0.00 0.00 0.00 0.00 0.00 0.00 0.00 0.00 0.00 0.00 0.00 0.00 0.00 0.00 0.00 0.00 0.00 0.00 0.00 0.00 0.00 0.00 0.00 0.00 0.00 0.00
0.00 0.00 0.00 0.00 0.00 0.00 0.00 0.00 0.00 0.00 0.00 0.00 0.00 0.00 0.00 0.00 0.00 0.00 0.00 0.00 0.00 0.00 0.00 0.00 0.00 0.00 0.00 0.00 0.00 0.00 0.00 0.00 0.00 0.00 0.00 0.00 0.00 0.00 0.00 0.00 0.00 0.00 0.00 0.00
0.00 0.00 0.00 0.00 0.00 0.00 0.00 0.00 0.00 0.00 0.00 0.00 0.00 0.00 0.00 0.00 0.00 0.00 0.00 0.00 0.00 0.00 0.00 0.00 0.00 0.00 0.00 0.00 0.00 0.00 0.00 0.00 0.00 0.00 0.00 0.00 0.00 0.00 0.00 0.00 0.00 0.00 0.00 0.00
0.00 0.00 0.00 0.00 0.00 0.00 0.00 0.00 0.00 0.00 0.00 0.00 0.00 0.00 0.00 0.00 0.00 0.00 0.00 0.00 0.00 0.00 0.00 0.00 0.00 0.00 0.00 0.00 0.00 0.00 0.00 0.00 0.00 0.00 0.00 0.00 0.00 0.00 0.00 0.00 0.00 0.00 0.00 0.00
0.00 0.00 0.00 0.00 0.00 0.00 0.00 0.00 0.00 0.00 0.00 0.00 0.00 0.00 0.00 0.00 0.00 0.00 0.00 0.00 0.00 0.00 0.00 0.00 0.00 0.00 0.00 0.00 0.00 0.00 0.00 0.00 0.00 0.00 0.00 0.00 0.00 0.00 0.00 0.00 0.00 0.00 0.00 0.00
0.00 0.00 0.00 0.00 0.00 0.00 0.00 0.00 0.00 0.00 0.00 0.00 0.00 0.00 0.00 0.00 0.00 0.00 0.00 0.00 0.00 0.00 0.00 0.00 0.00 0.00 0.00 0.00 0.00 0.00 0.00 0.00 0.00 0.00 0.00 0.00 0.00 0.00 0.00 0.00 0.00 0.00 0.00 0.00
MSLP
1020.34 1020.12 1019.60 1019.44 1019.46 1019.78 1020.48 1021.05 1021.85 1021.62 1021.79 1021.41 1021.82 1022.15 1022.55 1023.15 1023.57 1023.85 1024.04 1024.12 1024.19 1024.29 1024.28 1024.14 1023.91 1023.91 1023.99 1023.93 1023.72 1023.55 1023.55 1023.52 1023.55 1023.28 1023.02 1022.91 1022.88 1022.83 1022.43 1022.29 1022.38 1022.32 1022.05 1021.83
1021.79 1021.42 1021.02 1020.27 1019.70 1019.57 1019.88 1020.19 1020.70 1021.09 1021.81 1022.01 1022.32 1022.68 1023.23 1023.49 1023.72 1023.94 1024.06 1024.11 1024.20 1024.25 1024.11 1023.99 1024.15 1024.16 1024.07 1023.92 1023.76 1023.58 1023.62 1023.61 1023.40 1023.13 1022.95 1022.83 1022.58 1022.38 1022.37 1022.37 1021.97 1022.23 1021.98 1021.87
1023.78 1023.14 1022.16 1021.23 1019.61 1019.33 1019.38 1019.85 1020.19 1021.04 1021.44 1022.33 1022.97 1023.27 1023.65 1023.84 1023.85 1023.92 1023.94 1024.05 1024.09 1024.01 1023.97 1024.07 1024.13 1024.06 1024.01 1023.83 1023.56 1023.57 1023.65 1023.57 1023.31 1023.01 1022.87 1022.64 1022.46 1022.33 1022.27 1022.41 1022.14 1022.12 1022.00 1022.01
1025.51 1024.69 1023.51 1020.47 1019.39 1018.92 1019.32 1020.01 1020.34 1021.13 1022.01 1022.55 1022.97 1023.40 1023.73 1023.75 1023.73 1023.72 1023.80 1023.81 1023.74 1023.84 1023.99 1024.09 1024.11 1024.05 1023.89 1023.54 1023.48 1023.56 1023.53 1023.19 1023.03 1022.92 1022.81 1022.52 1022.29 1022.18 1022.07 1022.12 1022.00 1022.17 1022.32 1022.48
1026.81 1025.92 1023.71 1020.93 1019.60 1019.13 1019.39 1020.39 1020.84 1021.45 1022.27 1022.80 1023.34 1023.79 1023.91 1023.52 1023.40 1023.42 1023.45 1023.47 1023.71 1023.81 1023.96 1024.13 1024.11 1023.95 1023.69 1023.59 1023.55 1023.45 1023.21 1023.19 1023.08 1022.86 1022.63 1022.37 1022.37 1022.39 1022.07 1022.06 1022.12 1022.48 1022.58 1022.53
1027.22 1026.73 1024.33 1020.86 1019.40 1019.01 1019.39 1020.52 1020.71 1021.39 1022.26 1022.75 1023.34 1023.95 1023.60 1023.22 1023.27 1023.20 1023.26 1023.53 1023.83 1023.92 1024.11 1024.07 1023.77 1023.52 1023.57 1023.58 1023.54 1023.51 1023.33 1023.10 1022.89 1022.72 1022.66 1022.41 1022.18 1022.02 1021.93 1021.88 1022.25 1022.54 1022.77 1022.82
1026.76 1025.93 1023.09 1020.39 1019.27 1019.28 1020.35 1020.32 1020.42 1021.15 1021.91 1022.56 1023.03 1022.99 1023.00 1023.02 1022.98 1023.15 1023.29 1023.57 1023.77 1023.96 1024.04 1023.85 1023.74 1023.48 1023.51 1023.50 1023.55 1023.51 1023.26 1023.03 1022.85 1022.65 1022.46 1022.08 1021.83 1021.78 1021.91 1022.26 1022.61 1022.98 1023.05 1023.08
1025.93 1025.17 1021.89 1019.36 1019.47 1019.58 1019.31 1019.61 1020.18 1020.97 1021.46 1021.94 1022.18 1022.39 1022.60 1022.76 1023.05 1023.22 1023.51 1023.70 1023.88 1023.99 1023.93 1023.75 1023.54 1023.47 1023.53 1023.52 1023.40 1023.27 1023.09 1023.09 1022.99 1022.73 1022.40 1022.09 1021.94 1022.13 1022.35 1022.63 1023.02 1023.34 1023.47 1023.44
1022.44 1021.18 1019.21 1018.47 1017.88 1017.87 1018.39 1019.13 1019.91 1020.51 1021.06 1021.47 1022.13 1022.44 1022.61 1022.89 1023.17 1023.42 1023.68 1023.89 1023.87 1024.01 1023.93 1023.78 1023.68 1023.59 1023.58 1023.28 1023.08 1023.06 1023.08 1023.12 1022.98 1022.77 1022.52 1022.37 1022.34 1022.59 1022.74 1022.91 1023.10 1023.29 1023.40 1023.43
1020.56 1018.83 1018.55 1018.08 1017.99 1018.03 1018.52 1019.01 1019.65 1020.22 1020.86 1021.34 1021.93 1022.48 1022.91 1023.20 1023.42 1023.69 1023.90 1023.96 1023.94 1024.03 1024.11 1024.03 1023.80 1023.61 1023.51 1023.11 1022.84 1022.91 1022.96 1022.96 1022.93 1022.93 1022.70 1022.49 1022.55 1022.70 1022.88 1022.95 1023.02 1023.13 1023.20 1023.27
1018.97 1018.36 1018.14 1018.10 1018.13 1018.36 1018.83 1019.23 1019.79 1020.20 1020.49 1021.10 1021.69 1022.51 1022.86 1023.33 1023.65 1023.87 1024.03 1024.14 1024.13 1024.14 1024.15 1024.02 1023.76 1023.54 1023.19 1022.83 1022.56 1022.82 1022.78 1022.88 1022.90 1022.93 1022.87 1022.70 1022.80 1022.87 1022.85 1022.70 1022.75 1022.86 1022.89 1023.01
1017.52 1017.44 1017.53 1017.77 1018.00 1018.31 1018.78 1019.21 1019.51 1020.05 1020.88 1021.55 1021.88 1022.60 1023.01 1023.48 1023.76 1024.04 1024.21 1024.11 1024.11 1024.09 1023.98 1023.77 1023.55 1023.25 1022.94 1022.65 1022.73 1022.92 1022.80 1022.76 1022.78 1022.90 1022.97 1022.84 1022.87 1022.80 1022.58 1022.45 1022.41 1022.31 1022.30 1022.44
1016.44 1016.46 1016.80 1017.10 1017.87 1018.31 1018.80 1019.16 1019.61 1020.09 1021.03 1021.91 1022.53 1022.86 1023.26 1023.70 1023.96 1024.03 1024.05 1024.08 1024.12 1024.04 1023.86 1023.69 1023.40 1023.13 1022.73 1022.59 1022.47 1022.49 1022.54 1022.53 1022.61 1022.76 1022.85 1022.87 1022.83 1022.69 1022.84 1022.33 1022.08 1021.93 1021.84 1022.02
1016.02 1016.57 1017.59 1017.78 1018.14 1018.41 1018.73 1019.33 1020.18 1020.73 1021.49 1022.15 1022.73 1023.18 1023.55 1023.78 1023.96 1024.11 1024.19 1024.15 1024.06 1023.91 1023.75 1023.49 1023.24 1023.00 1022.54 1022.26 1022.10 1022.15 1022.06 1022.04 1022.40 1022.45 1022.58 1022.66 1022.64 1022.47 1022.41 1022.36 1022.55 1022.03 1021.65 1021.71
1016.26 1016.45 1016.79 1017.52 1018.10 1018.58 1019.26 1020.15 1020.54 1021.37 1022.13 1022.65 1023.05 1023.34 1023.65 1023.98 1024.17 1024.20 1024.14 1024.15 1023.99 1023.87 1023.67 1023.48 1023.24 1022.76 1022.22 1021.89 1021.74 1021.68 1021.59 1021.82 1021.80 1021.99 1022.08 1022.16 1022.21 1022.21 1022.23 1022.10 1022.04 1022.03 1021.93 1021.81
1016.63 1016.92 1017.40 1017.90 1018.61 1019.65 1020.25 1021.04 1021.27 1021.77 1022.40 1022.84 1023.17 1023.53 1023.83 1024.02 1024.15 1024.15 1024.18 1024.15 1024.04 1023.65 1023.41 1023.17 1022.80 1022.22 1021.76 1021.46 1021.26 1021.17 1021.06 1021.19 1021.47 1021.81 1022.05 1022.09 1022.04 1021.89 1021.90 1021.87 1021.85 1021.79 1021.84 1022.02
1016.80 1017.60 1018.24 1018.88 1019.59 1020.42 1021.03 1021.30 1021.65 1022.02 1022.49 1022.98 1023.48 1023.84 1024.08 1024.31 1024.45 1024.23 1024.15 1024.04 1023.77 1023.39 1023.02 1022.59 1022.09 1021.58 1021.26 1021.03 1020.80 1020.61 1020.65 1020.84 1021.08 1021.35 1021.69 1021.71 1021.58 1021.46 1021.47 1021.51 1021.47 1021.45 1021.48 1021.31
1016.88 1017.66 1018.62 1020.15 1020.79 1021.16 1021.52 1021.78 1022.03 1022.41 1022.83 1023.18 1023.75 1024.37 1024.70 1024.70 1024.60 1024.34 1023.94 1023.49 1023.09 1022.73 1022.37 1021.87 1021.36 1021.05 1020.78 1020.46 1020.35 1020.16 1020.27 1020.54 1020.78 1021.04 1021.19 1021.17 1021.08 1021.00 1020.92 1020.98 1020.98 1021.06 1021.09 1020.83
1018.70 1019.47 1020.18 1020.92 1021.08 1021.39 1021.78 1022.19 1022.62 1022.91 1023.14 1023.49 1024.18 1024.45 1024.51 1024.52 1024.25 1023.80 1023.35 1023.09 1022.61 1021.94 1021.41 1021.02 1020.85 1020.62 1020.16 1019.87 1019.71 1019.56 1019.75 1020.34 1020.49 1020.62 1020.73 1020.68 1020.63 1020.54 1020.40 1020.37 1020.40 1020.51 1020.64 1020.82
1020.20 1020.72 1021.22 1021.49 1021.69 1021.95 1022.27 1022.55 1022.93 1023.16 1023.13 1023.46 1023.78 1024.27 1024.19 1023.97 1023.58 1023.29 1022.89 1022.73 1022.01 1021.25 1020.71 1020.68 1020.51 1020.10 1019.55 1019.25 1018.94 1018.88 1019.17 1019.70 1019.87 1019.99 1020.10 1020.13 1020.08 1019.95 1019.78 1019.64 1019.68 1019.81 1020.09 1020.34
1020.93 1021.23 1021.52 1021.88 1022.25 1022.58 1022.71 1022.80 1023.28 1023.27 1023.01 1023.20 1023.70 1023.56 1023.45 1023.00 1022.83 1022.70 1022.71 1022.05 1020.97 1020.52 1020.29 1020.11 1019.89 1019.42 1018.96 1018.60 1018.27 1018.30 1018.58 1019.07 1019.14 1019.20 1019.32 1019.41 1019.34 1019.22 1019.06 1018.86 1018.80 1018.98 1019.45 1019.63
1021.47 1021.74 1021.99 1022.25 1022.51 1022.76 1022.65 1022.66 1022.74 1022.83 1022.98 1022.94 1022.80 1022.75 1022.72 1022.40 1022.21 1022.05 1021.95 1021.54 1020.30 1019.96 1019.74 1019.46 1019.10 1018.68 1018.32 1017.92 1017.62 1017.58 1017.71 1017.89 1018.08 1018.25 1018.38 1018.43 1018.50 1018.33 1018.17 1018.03 1017.93 1017.96 1018.04 1018.35
1021.87 1022.04 1022.23 1022.44 1022.69 1022.73 1022.55 1022.48 1022.41 1022.51 1022.57 1022.36 1022.21 1021.91 1021.78 1021.51 1021.54 1021.64 1021.03 1020.29 1019.85 1019.49 1019.15 1018.76 1018.32 1017.96 1017.61 1017.25 1016.95 1016.75 1016.67 1016.80 1016.88 1016.98 1017.09 1017.18 1017.21 1017.24 1017.09 1016.97 1016.88 1016.91 1017.08 1017.15
1022.15 1022.26 1022.42 1022.42 1022.55 1022.78 1022.61 1022.04 1021.88 1021.73 1021.60 1021.31 1021.04 1020.73 1020.87 1020.95 1020.83 1020.55 1020.37 1019.88 1019.37 1018.99 1018.63 1018.15 1017.69 1017.33 1017.02 1016.60 1016.33 1016.03 1015.83 1015.78 1015.68 1015.66 1015.71 1015.83 1015.99 1015.98 1015.99 1015.90 1015.81 1015.85 1016.03 1016.15
1022.35 1022.36 1022.34 1022.57 1022.56 1022.39 1022.10 1021.64 1021.51 1021.33 1021.13 1020.84 1020.47 1020.08 1020.16 1020.17 1020.28 1019.86 1019.66 1019.28 1018.85 1018.47 1018.05 1017.60 1017.21 1016.77 1016.37 1015.96 1015.56 1015.28 1015.07 1014.90 1014.77 1014.65 1014.53 1014.48 1014.46 1014.58 1014.69 1014.84 1014.92 1015.02 1015.12 1015.18
1022.36 1022.31 1022.25 1022.05 1022.02 1021.82 1021.58 1021.38 1021.39 1021.05 1020.84 1020.64 1020.09 1019.73 1019.36 1019.39 1019.43 1019.25 1018.91 1018.70 1018.42 1018.09 1017.80 1017.38 1016.94 1016.44 1015.90 1015.45 1015.10 1014.66 1014.22 1013.89 1013.73 1013.53 1013.38 1013.24 1013.18 1013.20 1013.43 1013.76 1013.95 1014.08 1014.20 1014.27
1022.35 1022.27 1022.17 1021.93 1021.64 1021.34 1021.13 1021.04 1020.98 1020.53 1020.19 1020.07 1019.59 1019.27 1019.06 1018.91 1018.76 1018.59 1018.48 1018.36 1018.15 1017.84 1017.52 1017.15 1016.84 1016.24 1015.67 1015.07 1014.48 1014.04 1013.50 1013.09 1012.71 1012.46 1012.29 1012.10 1012.03 1012.13 1012.38 1012.81 1013.12 1013.32 1013.47 1013.57
Thickness
5612 5609 5613 5609 5607 5603 5594 5588 5573 5580 5577 5583 5572 5566 5562 5554 5545 5539 5533 5526 5521 5515 5507 5501 5497 5488 5477 5468 5459 5450 5439 5424 5408 5394 5380 5364 5349 5336 5323 5311 5298 5290 5284 5281
5603 5599 5594 5599 5599 5598 5594 5597 5591 5586 5569 5569 5563 5555 5547 5542 5535 5528 5523 5518 5511 5504 5498 5492 5482 5472 5463 5454 5445 5432 5417 5402 5389 5377 5363 5347 5332 5320 5305 5294 5286 5276 5274 5271
5574 5574 5578 5568 5596 5599 5600 5591 5590 5574 5569 5559 5550 5544 5534 5528 5526 5520 5515 5508 5500 5495 5487 5477 5467 5460 5450 5440 5428 5414 5399 5386 5373 5361 5347 5333 5317 5302 5291 5280 5274 5269 5266 5261
5542 5540 5547 5595 5603 5600 5588 5582 5575 5566 5557 5551 5543 5533 5524 5521 5516 5512 5503 5499 5492 5483 5473 5464 5455 5445 5434 5424 5412 5399 5386 5373 5358 5344 5329 5314 5301 5289 5282 5275 5270 5263 5256 5250
5526 5536 5565 5592 5592 5587 5581 5571 5564 5557 5548 5542 5529 5520 5517 5515 5510 5504 5498 5490 5480 5470 5462 5450 5440 5431 5421 5408 5395 5382 5370 5356 5342 5326 5312 5299 5288 5279 5275 5270 5263 5255 5250 5244
5522 5519 5524 5575 5589 5586 5580 5549 5561 5553 5540 5534 5522 5497 5503 5505 5499 5495 5486 5475 5465 5457 5446 5437 5429 5419 5406 5390 5377 5364 5352 5341 5326 5311 5296 5287 5281 5277 5272 5266 5259 5251 5243 5235
5479 5489 5534 5569 5581 5576 5545 5550 5555 5545 5532 5522 5512 5503 5501 5496 5492 5484 5473 5463 5453 5441 5431 5422 5412 5403 5389 5376 5361 5346 5334 5323 5308 5295 5285 5280 5277 5273 5266 5258 5250 5241 5234 5226
5506 5482 5528 5573 5569 5555 5557 5556 5547 5535 5526 5517 5510 5503 5497 5489 5479 5467 5457 5448 5437 5427 5417 5407 5399 5388 5375 5361 5348 5333 5319 5305 5292 5282 5277 5272 5268 5262 5256 5249 5241 5232 5220 5216
5546 5548 5569 5570 5573 5569 5558 5549 5536 5526 5517 5509 5498 5492 5486 5473 5462 5452 5441 5431 5424 5412 5402 5392 5381 5369 5358 5348 5335 5320 5305 5292 5280 5271 5267 5263 5259 5252 5246 5240 5231 5226 5220 5208
5551 5571 5565 5565 5562 5555 5545 5536 5524 5516 5505 5499 5492 5480 5466 5454 5446 5436 5426 5417 5408 5397 5386 5375 5364 5354 5341 5333 5322 5307 5292 5280 5269 5262 5258 5255 5251 5246 5240 5230 5224 5222 5214 5207
5542 5558 5554 5552 5547 5535 5525 5518 5512 5507 5501 5492 5478 5463 5453 5442 5431 5421 5411 5401 5391 5380 5369 5360 5351 5340 5329 5319 5309 5293 5281 5270 5260 5254 5249 5247 5242 5238 5233 5229 5223 5216 5211 5204
5542 5550 5548 5543 5529 5524 5517 5512 5508 5499 5485 5471 5461 5449 5439 5426 5416 5406 5395 5386 5376 5365 5356 5347 5338 5329 5319 5308 5295 5282 5271 5262 5252 5246 5241 5240 5236 5232 5230 5226 5221 5217 5211 5201
5550 5549 5543 5532 5519 5515 5507 5503 5495 5485 5468 5452 5442 5433 5424 5412 5401 5391 5381 5372 5361 5351 5342 5333 5322 5311 5304 5294 5284 5274 5264 5256 5247 5243 5237 5232 5228 5225 5217 5219 5217 5213 5209 5202
5541 5531 5519 5513 5506 5503 5499 5488 5473 5461 5449 5438 5428 5417 5407 5398 5387 5375 5366 5356 5347 5338 5327 5317 5307 5296 5291 5283 5275 5265 5259 5251 5243 5238 5232 5228 5222 5225 5216 5211 5203 5202 5205 5201
5524 5522 5512 5502 5497 5491 5479 5464 5455 5443 5431 5421 5411 5402 5393 5382 5371 5360 5350 5341 5332 5321 5311 5301 5292 5285 5279 5273 5266 5259 5254 5245 5238 5232 5228 5225 5221 5219 5214 5209 5207 5201 5196 5194
5507 5504 5500 5494 5484 5466 5456 5443 5436 5427 5417 5407 5397 5387 5377 5367 5356 5346 5335 5325 5315 5308 5297 5289 5280 5275 5270 5265 5260 5254 5249 5242 5234 5228 5224 5221 5217 5213 5211 5206 5201 5200 5191 5187
5495 5487 5481 5467 5456 5444 5437 5430 5422 5413 5403 5392 5381 5369 5359 5349 5338 5332 5320 5308 5298 5291 5283 5277 5272 5268 5263 5258 5254 5249 5244 5238 5232 5227 5222 5218 5214 5213 5209 5204 5202 5195 5193 5188
5486 5475 5462 5444 5434 5426 5418 5410 5403 5396 5385 5376 5360 5343 5332 5323 5322 5315 5306 5297 5291 5283 5275 5268 5264 5260 5255 5252 5248 5244 5239 5233 5227 5223 5218 5212 5214 5211 5208 5202 5199 5192 5190 5187
5455 5443 5434 5424 5418 5410 5401 5393 5385 5375 5361 5352 5340 5333 5320 5311 5308 5302 5294 5284 5280 5277 5271 5263 5256 5251 5249 5247 5243 5239 5234 5226 5221 5218 5216 5212 5206 5208 5206 5201 5197 5196 5190 5185
5429 5419 5410 5404 5398 5392 5381 5375 5359 5356 5350 5338 5325 5318 5309 5300 5295 5289 5282 5274 5268 5268 5262 5255 5249 5246 5245 5242 5240 5237 5231 5225 5220 5216 5210 5206 5201 5202 5206 5201 5199 5193 5186 5183
5404 5399 5393 5382 5374 5366 5358 5351 5341 5337 5334 5320 5312 5310 5300 5294 5286 5276 5269 5270 5267 5259 5253 5248 5243 5242 5241 5240 5239 5234 5227 5221 5217 5214 5210 5206 5203 5201 5202 5203 5199 5194 5186 5180
5383 5377 5369 5363 5357 5352 5345 5339 5334 5324 5314 5310 5305 5297 5291 5287 5278 5269 5259 5256 5261 5253 5249 5244 5241 5239 5238 5238 5237 5233 5228 5224 5219 5215 5211 5206 5202 5201 5199 5198 5198 5194 5190 5182
5368 5364 5358 5346 5337 5338 5331 5323 5316 5308 5303 5298 5292 5287 5282 5280 5268 5262 5266 5259 5252 5249 5245 5242 5240 5238 5237 5237 5236 5234 5231 5226 5221 5218 5214 5210 5206 5202 5201 5198 5197 5194 5189 5186
5351 5345 5339 5333 5323 5317 5315 5315 5308 5303 5295 5291 5286 5280 5276 5269 5260 5255 5250 5248 5245 5242 5241 5240 5238 5236 5236 5236 5234 5233 5230 5227 5223 5220 5215 5210 5206 5203 5200 5198 5196 5193 5189 5185
5328 5327 5323 5312 5311 5307 5305 5303 5298 5291 5287 5284 5278 5273 5265 5259 5253 5250 5242 5240 5239 5238 5237 5236 5234 5234 5234 5233 5232 5231 5228 5225 5221 5218 5214 5211 5208 5204 5201 5197 5193 5189 5186 5184
5319 5311 5307 5305 5298 5294 5291 5287 5283 5278 5273 5270 5265 5261 5259 5251 5242 5238 5235 5233 5232 5231 5229 5229 5228 5228 5228 5228 5226 5225 5224 5222 5219 5216 5213 5210 5207 5204 5200 5195 5191 5187 5184 5181
5302 5296 5293 5290 5287 5282 5278 5272 5271 5273 5262 5256 5259 5253 5246 5239 5233 5229 5226 5224 5222 5222 5221 5221 5219 5220 5220 5221 5221 5220 5219 5218 5216 5214 5211 5208 5205 5202 5197 5191 5187 5183 5180 5177